Location: Minneapolis
(44.9800°N, 93.2640°W)
Time: 08:16:10
(UTC-06:00)

Tiangong 1 - Visible Passes

Search period start: 15 December 2017 00:00
Search period end: 25 December 2017 00:00
Orbit: 275 x 302 km, 42.8° (Epoch: 14 December)

Date Brightness Start Highest point End Pass type
(mag) Time Alt. Az. Time Alt. Az. Time Alt. Az.
20 Dec 3.5 06:14:28 10° S 06:15:57 14° SSE 06:17:25 10° ESE visible
21 Dec 2.8 06:17:36 12° SSW 06:19:18 22° SSE 06:21:21 10° ESE visible
22 Dec 2.1 06:21:17 18° SW 06:22:36 31° SSE 06:24:53 10° E visible
23 Dec 1.5 06:24:41 24° SW 06:25:48 41° S 06:28:13 10° E visible
24 Dec 1.1 06:27:52 26° WSW 06:28:55 48° S 06:31:22 10° E visible
